Regional Weather Roundup
Issued by NWS

Home | Current Version | Previous Version | Graphics & Text | Print | Product List | Glossary On
Versions: 1 2 3 4 5 6 7 8 9 10 11 12 13 14 15 16 17 18 19 20 21 22 23 24 25 26 27 28 29 30 31 32 33 34 35 36 37 38 39 40 41 42 43 44 45 46 47 48 49 50
734
ASUS45 KSLC 202210
RWRUT

UTAH REGIONAL WEATHER ROUNDUP
NATIONAL WEATHER SERVICE SALT LAKE CITY UT
400 PM MDT SUN AUG 20 2017

UTZ001>011-023>025-202300-

NORTHERN UTAH

CITY           SKY/WX    TMP DP  RH WIND       PRES   REMARKS
BRIGHAM CITY   SUNNY     90  28  11 S5        30.01F
HILL AFB       SUNNY     89  37  16 W10       30.03F
LOGAN          SUNNY     90  36  14 CALM      30.01F
OGDEN          SUNNY     90  37  15 N7        30.00F
SALT LAKE CITY MOSUNNY   95  41  15 N13G21    29.97F HX  91
TOOELE VALLEY  MOSUNNY   90  46  22 N14       29.99F
WENDOVER       SUNNY     90  33  13 E8        29.99F
HEBER CITY     MOSUNNY   91  32  12 SW9G16    30.07F
WEST JORDAN    MOSUNNY   91  53  27 CALM      30.01F

$$

UTZ011>015-024>027-202300-

CENTRAL/NORTHEAST UTAH

CITY           SKY/WX    TMP DP  RH WIND       PRES   REMARKS
PROVO AIRPORT  SUNNY     93  36  13 NW5       30.00F
MOAB/CANYONLAN SUNNY     96  32  10 W9        29.95F HX  90
DELTA          MOSUNNY   91  32  12 S8        30.01F
PRICE          PTSUNNY   83  32  16 SW6       30.12F
ROOSEVELT      CLOUDY    88  36  15 N10       30.07F
VERNAL         SUNNY     89  39  17 NW14G22   30.07F

$$

UTZ013>016-019>022-027-202300-

SOUTHERN UTAH

CITY           SKY/WX    TMP DP  RH WIND       PRES   REMARKS
BRYCE CANYON   TSTM      63  50  62 NW7       30.29F
CEDAR CITY     MOSUNNY   88  41  19 SW8G18    30.09F
MILFORD        MOSUNNY   91  37  15 S7        30.02F
ST GEORGE      PTCLDY    98  45  16 S8        29.89F HX  94
HANKSVILLE     MOSUNNY   93  34  12 NW15G22   30.00F
BLANDING       PTSUNNY   85  36  17 W15G26    30.17F

$$

REGIONAL REPORTS     COLORADO/ARIZONA

CITY           SKY/WX    TMP DP  RH WIND       PRES   REMARKS
CRAIG, CO      CLOUDY    87  26  11 W15       30.10F
GRAND JUNCTION SUNNY     95  27   9 W13       29.99F
RIFLE, CO      SUNNY     90  32  12 N13       30.07F
MONTROSE, CO   CLOUDY    87  33  14 NW8       30.09F
CORTEZ, CO     LGT RAIN  78  43  28 E25G38    30.11R
COLORADO CITY    N/A     90  43  19 W8        30.09S
PAGE, AZ       PTSUNNY   95  37  13 CALM      29.97F HX  90
GRAND CANYON   CLOUDY    66  50  56 NW8G16    30.25F
KINGMAN, AZ    SUNNY     96  43  16 SW15      29.98F HX  92
FLAGSTAFF, AZ  TSTM      56  53  90 SW7       30.28R

$$

REGIONAL REPORTS    NEVADA/IDAHO/WYOMING

CITY           SKY/WX    TMP DP  RH WIND       PRES   REMARKS
LAS VEGAS, NV  MOSUNNY  103  43  13 VRB7      29.84F HX  98
ELY, NY        MOSUNNY   86  24  10 S8        30.12F
ELKO, NV       MOSUNNY   90  26  10 VRB3      30.03F
POCATELLO, ID  SUNNY     86  31  13 SW17      30.05F
BURLEY, ID     SUNNY     80  39  23 NW8       30.03F
FORT BRIDGER,    N/A     81  31  16 NW16G22   30.22F
EVANSTON, WY   CLOUDY    84  34  16 W10G33    30.19F
ROCK SPRINGS,  LGT RAIN  76  34  21 VRB5G37   30.17S
KEMMERER, WY     N/A     77  32  19 S13       30.21

$$




USA.gov is the U.S. government's official web portal to all federal, state and local government web resources and services.